Flag for Canada Weather past 2 weeks in Lloydminster, Alberta, Canada

Now
59 °F

Scattered clouds.


Feels Like: 57 °F
Forecast: 36 / 59 °F
Wind: 9 mph from South

Location: Lloydminister

Current Time: Oct 22, 2014 at 4:28:33 PM

Latest Report: Oct 22, 2014 at 4:00 PM


Visibility: 15 mi

Pressure: 29.72 "Hg

Humidity: 31%

Dew point: 28 °F

Location of LloydminsterLocation

Historic Weather in Lloydminster — Graph

°F

Lloydminster temperature yesterday

Maximum temperature yesterday: 59 °F (at 2:00 PM)
Minimum temperature yesterday: 39 °F (at 5:00 AM)
Average temperature yesterday: 50 °F

Past Weeks' High & Low Weather Summary

 TemperatureHumidityPressure
High70 °F (Oct 20, 3:00 PM)100% (Oct 17, 2:53 AM)30.26 "Hg (Oct 17, 2:53 AM)
Low27 °F (Oct 17, 5:00 AM)24% (Oct 7, 3:00 PM)29.50 "Hg (Oct 14, 1:00 PM)
Average47 °F64%29.86 "Hg
* Reported Oct 7 3:00 PM — Oct 22 3:00 PM, Lloydminster, Weather by CustomWeather, © 2014

Note: Actual official high and low records may vary slightly from our data, if they occured in-between our weather recording intervals... More about our weather records

Advertising

Lloydminster weather history for previous 24 hours

 ConditionsComfort  
Time TempWeatherWind HumidityBarometerVisibility
3:00 PM
Oct 22
61 °FPassing clouds.8 mph34%29.74 "Hg15 mi
2:07 PM61 °FPassing clouds.7 mph36%29.76 "Hg15 mi
1:00 PM59 °FPassing clouds.3 mph42%29.78 "Hg15 mi
12:00 PM57 °FPassing clouds.7 mph44%29.78 "Hg15 mi
11:00 AM54 °FPassing clouds.5 mph54%29.79 "Hg15 mi
10:00 AM45 °FPassing clouds.2 mph81%29.80 "Hg15 mi
9:00 AM34 °FPassing clouds.No wind93%29.80 "Hg15 mi
8:00 AM30 °FPassing clouds.7 mph93%29.80 "Hg15 mi
7:00 AM32 °FPassing clouds.8 mph93%29.80 "Hg15 mi
6:00 AM34 °FClear.8 mph93%29.80 "Hg9 mi
4:00 AM41 °FPassing clouds.7 mph76%29.76 "Hg9 mi
3:00 AM43 °FPassing clouds.8 mph76%29.76 "Hg9 mi
1:00 AM45 °FPassing clouds.7 mph71%29.73 "Hg9 mi
12:00 AM45 °FPassing clouds.6 mph71%29.73 "Hg9 mi
11:00 PM
Oct 21
46 °FPartly cloudy.7 mph71%29.74 "Hg9 mi
10:00 PM48 °FPassing clouds.10 mph66%29.73 "Hg9 mi
9:00 PM48 °FPartly cloudy.7 mph66%29.72 "Hg15 mi
8:00 PM50 °FPassing clouds.8 mph62%29.72 "Hg15 mi
7:00 PM52 °FPartly sunny.7 mph58%29.69 "Hg15 mi
6:00 PM54 °FMostly cloudy.6 mph54%29.67 "Hg15 mi
5:00 PM55 °FSprinkles. Mostly cloudy.10 mph47%29.65 "Hg15 mi
4:00 PM57 °FMostly cloudy.12 mph51%29.63 "Hg15 mi
Weather by CustomWeather, © 2014

See weather overviewHow to use our weather pages